Location: Newark
(37.3333°N, 6.0167°W)
Time: 05:15:27
(UTC+00:00)

LightSail 2 - Pass Details

Date: 18 November 2019
Orbit: 696 x 730 km, 24.0° (Epoch: 10 December)

Event Time Altitude Azimuth Distance (km) Brightness Sun altitude
Exits shadow 05:27:54 10° 215° (SW) 2,220 7.4 -19.5°
Reaches altitude 10° 05:28:02 10° 213° (SSW) 2,203 7.4 -19.4°
Maximum altitude 05:29:36 11° 196° (SSW) 2,118 7.5 -19.1°
Drops below altitude 10° 05:31:10 10° 178° (S) 2,206 7.8 -18.8°
Sets 05:35:29 0° 145° (SE) 3,130 9.2 -18.0°
